Olney-Noble, IL

1:42 AM CDT on May 27, 2017 (GMT -0500)
Olney-Noble

Weather History for KOLY - September, 2012

Change the Weather History Date:

Thursday, September 20, 2012

  Actual Average (KEVV) Record (KEVV)
Temperature  
Mean Temperature 65 °F -  
Max Temperature 77 °F 79 °F 95 °F (1940)
Min Temperature 51 °F 57 °F 38 °F (1897)
Growing Degree Days 15 (Base 50)    
Moisture  
Dew Point 51 °F    
Average Humidity 68    
Maximum Humidity 94    
Minimum Humidity 47    
Precipitation  
Precipitation 0.00 in - - ()
Sea Level Pressure  
Sea Level Pressure 29.98 in    
Wind  
Wind Speed 4 mph (SSW)    
Max Wind Speed 8 mph    
Max Gust Speed -    
Visibility 10 miles    
Events Rain    
Averages and records for this station are not official NWS values.
T = Trace of Precipitation, MM = Missing Value Source: NWS Daily Summary

Daily Weather History Graph

Daily Weather History Graph

Search for Another Location

Airport or City:

Trip Planner

Search our weather history database for the weather conditions in past years. The results will help you decide how hot, cold, wet, or windy it might be!

Date:

Astronomy

Sep. 20, 2012 Rise Set
Actual Time 6:39 AM CDT 6:52 PM CDT
Civil Twilight 6:12 AM CDT 7:18 PM CDT
Nautical Twilight 5:41 AM CDT 7:49 PM CDT
Astronomical Twilight 5:09 AM CDT 8:21 PM CDT
Moon 11:53 AM CDT (9/20) 9:57 PM CDT (9/20)
Length of Visible Light 13h 06m
Length of Day
12h 13m
Waxing Crescent, 27% of the Moon is Illuminated
Sep 20
Waxing Crescent
Sep 22
First Quarter
Sep 29
Full
Oct 8
Last Quarter
Oct 15
New

Hourly Weather History & Observations

Time (CDT) Temp. Dew Point Humidity Pressure Visibility Wind Dir Wind Speed Gust Speed Precip Events Conditions
12:15 AM 57.2 °F 44.6 °F 63% 30.02 in 10.0 mi South 4.6 mph - N/A   Clear
12:35 AM 57.2 °F 44.6 °F 63% 30.04 in 10.0 mi Calm Calm - N/A   Clear
12:55 AM 57.2 °F 46.4 °F 67% 30.04 in 10.0 mi Calm Calm - N/A   Clear
1:15 AM 55.4 °F 46.4 °F 72% 30.03 in 10.0 mi Calm Calm - N/A   Clear
1:35 AM 55.4 °F 46.4 °F 72% 30.02 in 10.0 mi SSE 5.8 mph - N/A   Clear
1:55 AM 55.4 °F 46.4 °F 72% 30.02 in 10.0 mi SSE 5.8 mph - N/A   Clear
2:15 AM 55.4 °F 46.4 °F 72% 30.01 in 10.0 mi SSE 4.6 mph - N/A   Clear
2:35 AM 55.4 °F 46.4 °F 72% 30.00 in 10.0 mi SSE 6.9 mph - N/A   Clear
2:55 AM 55.4 °F 46.4 °F 72% 30.00 in 10.0 mi SSE 4.6 mph - N/A   Clear
3:15 AM 55.4 °F 46.4 °F 72% 30.00 in 10.0 mi South 4.6 mph - N/A   Clear
3:35 AM 55.4 °F 46.4 °F 72% 29.99 in 10.0 mi South 4.6 mph - N/A   Clear
3:55 AM 55.4 °F 46.4 °F 72% 29.98 in 10.0 mi South 5.8 mph - N/A   Clear
4:15 AM 55.4 °F 46.4 °F 72% 29.98 in 10.0 mi South 4.6 mph - N/A   Clear
4:35 AM 55.4 °F 46.4 °F 72% 29.98 in 10.0 mi South 6.9 mph - N/A   Clear
4:55 AM 55.4 °F 46.4 °F 72% 29.98 in 10.0 mi South 4.6 mph - N/A   Clear
5:15 AM 55.4 °F 46.4 °F 72% 29.98 in 10.0 mi South 4.6 mph - N/A   Scattered Clouds
5:35 AM 57.2 °F 46.4 °F 67% 29.98 in 10.0 mi South 5.8 mph - N/A   Scattered Clouds
5:55 AM 57.2 °F 46.4 °F 67% 29.99 in 10.0 mi SSW 3.5 mph - N/A   Scattered Clouds
6:15 AM 57.2 °F 46.4 °F 67% 29.98 in 10.0 mi South 3.5 mph - N/A   Clear
6:35 AM 57.2 °F 46.4 °F 67% 29.98 in 10.0 mi South 5.8 mph - N/A   Clear
6:55 AM 57.2 °F 48.2 °F 72% 29.98 in 10.0 mi South 5.8 mph - N/A   Clear
7:15 AM 59.0 °F 48.2 °F 67% 29.97 in 10.0 mi South 8.1 mph - N/A   Clear
7:35 AM 60.8 °F 48.2 °F 63% 29.97 in 10.0 mi SSW 5.8 mph - N/A   Mostly Cloudy
7:55 AM 60.8 °F 48.2 °F 63% 29.97 in 10.0 mi South 6.9 mph - N/A   Scattered Clouds
8:15 AM 60.8 °F 48.2 °F 63% 29.97 in 10.0 mi SSW 8.1 mph - N/A   Clear
8:35 AM 62.6 °F 50.0 °F 63% 29.97 in 10.0 mi South 5.8 mph - N/A   Clear
8:55 AM 64.4 °F 50.0 °F 59% 29.98 in 10.0 mi SSW 8.1 mph - N/A   Clear
9:15 AM 62.6 °F 51.8 °F 68% 29.98 in 10.0 mi SW 3.5 mph - N/A Rain Light Rain
9:35 AM 62.6 °F 51.8 °F 68% 29.98 in 10.0 mi Calm Calm - N/A Rain Light Rain
9:55 AM 62.6 °F 51.8 °F 68% 29.97 in 10.0 mi South 4.6 mph - N/A   Scattered Clouds
10:15 AM 62.6 °F 53.6 °F 72% 29.98 in 10.0 mi South 3.5 mph - N/A Rain Light Rain
10:35 AM 64.4 °F 53.6 °F 68% 30.00 in 10.0 mi WSW 4.6 mph - N/A Rain Light Rain
2:55 PM 69.8 °F 59.0 °F 68% 29.94 in 10.0 mi WSW 5.8 mph - N/A   Overcast
3:15 PM 73.4 °F 59.0 °F 61% 29.93 in 10.0 mi West 6.9 mph - N/A   Mostly Cloudy
3:35 PM 75.2 °F 57.2 °F 53% 29.93 in 10.0 mi WSW 6.9 mph - N/A   Mostly Cloudy
3:55 PM 77.0 °F 55.4 °F 47% 29.93 in 10.0 mi SW 5.8 mph - N/A   Scattered Clouds
4:15 PM 77.0 °F 57.2 °F 50% 29.94 in 10.0 mi West 8.1 mph - N/A   Scattered Clouds
4:35 PM 77.0 °F 57.2 °F 50% 29.94 in 10.0 mi West 5.8 mph - N/A   Clear
4:55 PM 75.2 °F 57.2 °F 53% 29.94 in 10.0 mi WSW 6.9 mph - N/A   Clear
5:15 PM 75.2 °F 57.2 °F 53% 29.94 in 10.0 mi WSW 3.5 mph - N/A   Clear
5:35 PM 73.4 °F 55.4 °F 53% 29.94 in 10.0 mi WSW 3.5 mph - N/A   Clear
5:55 PM 75.2 °F 55.4 °F 50% 29.94 in 10.0 mi WSW 3.5 mph - N/A   Clear
6:15 PM 73.4 °F 55.4 °F 53% 29.94 in 10.0 mi Calm Calm - N/A   Clear
6:35 PM 71.6 °F 55.4 °F 57% 29.94 in 10.0 mi Calm Calm - N/A   Clear
6:55 PM 66.2 °F 55.4 °F 68% 29.94 in 10.0 mi Calm Calm - N/A   Clear
7:15 PM 64.4 °F 55.4 °F 73% 29.95 in 10.0 mi Calm Calm - N/A   Clear
7:35 PM 62.6 °F 55.4 °F 77% 29.96 in 10.0 mi Calm Calm - N/A   Clear
7:55 PM 64.4 °F 55.4 °F 73% 29.96 in 10.0 mi WSW 3.5 mph - N/A   Clear
8:15 PM 64.4 °F 53.6 °F 68% 29.96 in 10.0 mi West 5.8 mph - N/A   Clear
8:35 PM 64.4 °F 51.8 °F 64% 29.97 in 10.0 mi West 4.6 mph - N/A   Clear
8:55 PM 62.6 °F 50.0 °F 63% 29.97 in 10.0 mi Calm Calm - N/A   Clear
9:15 PM 60.8 °F 51.8 °F 72% 29.97 in 10.0 mi Calm Calm - N/A   Clear
9:35 PM 59.0 °F 50.0 °F 72% 29.98 in 10.0 mi Calm Calm - N/A   Clear
9:55 PM 57.2 °F 51.8 °F 82% 29.98 in 10.0 mi Calm Calm - N/A   Clear
10:15 PM 55.4 °F 51.8 °F 88% 29.98 in 10.0 mi Calm Calm - N/A   Clear
10:35 PM 55.4 °F 51.8 °F 88% 29.99 in 10.0 mi Calm Calm - N/A   Clear
10:55 PM 55.4 °F 51.8 °F 88% 29.99 in 10.0 mi Calm Calm - N/A   Clear
11:15 PM 53.6 °F 51.8 °F 94% 29.99 in 10.0 mi Calm Calm - N/A   Clear
11:35 PM 53.6 °F 51.8 °F 94% 29.99 in 10.0 mi Calm Calm - N/A   Clear
11:55 PM 51.8 °F 50.0 °F 94% 29.99 in 10.0 mi Calm Calm - N/A   Clear